QPF
0.03 0.03 0.03 0.03 0.04 0.04 0.03 0.02 0.02 0.02 0.02 0.01 0.01 0.01 0.01 0.01 0.01 0.02 0.03 0.03 0.02 0.01 0.01 0.02 0.02 0.01 0.02 0.02 0.02 0.02 0.02 0.01 0.01 0.01 0.02 0.02 0.01 0.00 0.00 0.00 0.00 0.00 0.00
0.03 0.04 0.03 0.03 0.05 0.04 0.03 0.03 0.02 0.02 0.02 0.02 0.02 0.02 0.02 0.01 0.01 0.02 0.02 0.02 0.03 0.03 0.03 0.04 0.04 0.04 0.03 0.03 0.03 0.03 0.03 0.03 0.02 0.02 0.03 0.03 0.03 0.02 0.01 0.01 0.01 0.00 0.00
0.02 0.03 0.03 0.03 0.05 0.06 0.03 0.03 0.02 0.01 0.02 0.02 0.03 0.03 0.02 0.01 0.01 0.01 0.01 0.02 0.03 0.04 0.04 0.04 0.04 0.04 0.04 0.04 0.03 0.03 0.03 0.03 0.03 0.04 0.05 0.04 0.03 0.02 0.01 0.01 0.01 0.00 0.00
0.02 0.03 0.03 0.03 0.03 0.04 0.05 0.04 0.04 0.04 0.04 0.03 0.03 0.03 0.03 0.03 0.02 0.01 0.01 0.02 0.03 0.04 0.04 0.03 0.02 0.02 0.03 0.05 0.04 0.04 0.03 0.03 0.02 0.02 0.03 0.03 0.02 0.01 0.01 0.00 0.00 0.00 0.01
0.01 0.01 0.03 0.04 0.03 0.03 0.03 0.04 0.05 0.05 0.05 0.05 0.04 0.03 0.03 0.02 0.02 0.02 0.02 0.02 0.02 0.02 0.02 0.02 0.02 0.02 0.03 0.03 0.03 0.03 0.03 0.03 0.03 0.02 0.02 0.02 0.01 0.01 0.01 0.00 0.00 0.00 0.01
0.02 0.01 0.02 0.03 0.03 0.02 0.02 0.02 0.03 0.04 0.04 0.05 0.05 0.05 0.04 0.02 0.02 0.02 0.02 0.01 0.02 0.02 0.01 0.02 0.01 0.01 0.02 0.02 0.02 0.02 0.02 0.02 0.02 0.02 0.02 0.02 0.02 0.01 0.01 0.00 0.00 0.00 0.00
0.03 0.02 0.02 0.02 0.02 0.02 0.02 0.02 0.03 0.03 0.04 0.04 0.03 0.03 0.02 0.02 0.01 0.02 0.02 0.02 0.02 0.02 0.02 0.01 0.01 0.01 0.01 0.01 0.01 0.01 0.01 0.02 0.02 0.02 0.02 0.02 0.03 0.02 0.01 0.01 0.01 0.00 0.00
0.03 0.02 0.02 0.01 0.01 0.01 0.01 0.02 0.03 0.03 0.03 0.02 0.01 0.01 0.02 0.02 0.01 0.01 0.02 0.01 0.02 0.02 0.01 0.00 0.00 0.00 0.00 0.00 0.00 0.01 0.01 0.01 0.02 0.01 0.01 0.01 0.02 0.02 0.02 0.01 0.01 0.01 0.01
0.03 0.03 0.03 0.02 0.03 0.03 0.02 0.02 0.02 0.02 0.02 0.02 0.02 0.01 0.01 0.01 0.01 0.01 0.01 0.01 0.01 0.01 0.01 0.00 0.00 0.00 0.00 0.00 0.00 0.00 0.01 0.01 0.01 0.01 0.01 0.02 0.02 0.02 0.02 0.02 0.02 0.02 0.01
0.04 0.03 0.03 0.02 0.03 0.03 0.02 0.02 0.02 0.02 0.03 0.02 0.02 0.01 0.01 0.01 0.01 0.01 0.01 0.01 0.01 0.01 0.01 0.01 0.01 0.00 0.00 0.00 0.00 0.01 0.01 0.01 0.00 0.01 0.01 0.01 0.01 0.01 0.01 0.01 0.01 0.01 0.01
0.04 0.05 0.03 0.02 0.02 0.02 0.02 0.02 0.03 0.03 0.03 0.03 0.02 0.02 0.01 0.01 0.01 0.01 0.01 0.01 0.01 0.01 0.01 0.00 0.01 0.00 0.00 0.00 0.00 0.01 0.01 0.01 0.00 0.00 0.00 0.00 0.00 0.00 0.01 0.01 0.02 0.02 0.01
0.03 0.03 0.03 0.02 0.02 0.02 0.02 0.02 0.03 0.03 0.03 0.02 0.02 0.02 0.02 0.02 0.02 0.01 0.01 0.01 0.02 0.02 0.02 0.01 0.01 0.01 0.01 0.01 0.01 0.01 0.02 0.01 0.00 0.00 0.00 0.00 0.00 0.00 0.00 0.01 0.02 0.02 0.01
0.02 0.03 0.02 0.02 0.02 0.02 0.02 0.02 0.02 0.02 0.03 0.02 0.02 0.02 0.02 0.02 0.02 0.02 0.01 0.02 0.02 0.02 0.01 0.01 0.01 0.01 0.01 0.01 0.02 0.01 0.01 0.01 0.00 0.00 0.00 0.00 0.00 0.00 0.00 0.01 0.02 0.02 0.01
0.02 0.02 0.02 0.02 0.02 0.02 0.02 0.02 0.02 0.02 0.02 0.02 0.02 0.02 0.02 0.02 0.02 0.02 0.02 0.02 0.02 0.01 0.00 0.00 0.01 0.01 0.01 0.02 0.02 0.01 0.01 0.00 0.00 0.00 0.00 0.00 0.00 0.00 0.00 0.01 0.01 0.02 0.02
0.02 0.02 0.02 0.02 0.02 0.03 0.02 0.02 0.01 0.01 0.01 0.01 0.01 0.01 0.01 0.01 0.02 0.03 0.03 0.02 0.01 0.01 0.01 0.01 0.00 0.00 0.01 0.01 0.01 0.01 0.01 0.00 0.00 0.00 0.00 0.00 0.00 0.00 0.00 0.00 0.01 0.01 0.02
0.02 0.02 0.02 0.02 0.02 0.03 0.03 0.03 0.02 0.01 0.01 0.01 0.01 0.01 0.01 0.02 0.03 0.03 0.02 0.02 0.02 0.01 0.00 0.00 0.00 0.01 0.01 0.01 0.01 0.01 0.01 0.00 0.00 0.00 0.00 0.00 0.00 0.00 0.00 0.00 0.01 0.01 0.02
0.04 0.03 0.03 0.03 0.03 0.03 0.03 0.02 0.02 0.02 0.01 0.01 0.01 0.01 0.01 0.02 0.02 0.02 0.02 0.01 0.01 0.00 0.00 0.00 0.00 0.01 0.01 0.01 0.02 0.01 0.01 0.01 0.01 0.01 0.00 0.00 0.00 0.00 0.00 0.00 0.00 0.01 0.01
0.05 0.05 0.04 0.04 0.04 0.03 0.02 0.02 0.02 0.02 0.01 0.01 0.01 0.02 0.01 0.02 0.02 0.02 0.02 0.01 0.01 0.00 0.00 0.01 0.01 0.01 0.02 0.02 0.01 0.01 0.01 0.01 0.01 0.01 0.01 0.01 0.01 0.00 0.00 0.00 0.00 0.01 0.01
0.05 0.06 0.06 0.06 0.06 0.05 0.03 0.02 0.02 0.01 0.01 0.01 0.01 0.01 0.01 0.02 0.03 0.03 0.02 0.01 0.01 0.01 0.02 0.02 0.01 0.01 0.02 0.02 0.01 0.01 0.01 0.01 0.02 0.02 0.02 0.02 0.01 0.01 0.01 0.01 0.01 0.01 0.02
0.03 0.03 0.04 0.04 0.05 0.06 0.06 0.04 0.04 0.03 0.01 0.01 0.01 0.01 0.02 0.02 0.03 0.03 0.02 0.02 0.02 0.02 0.04 0.03 0.02 0.02 0.02 0.01 0.01 0.01 0.01 0.01 0.02 0.02 0.02 0.02 0.02 0.02 0.02 0.02 0.02 0.02 0.02
0.01 0.02 0.02 0.02 0.02 0.04 0.04 0.04 0.04 0.04 0.03 0.02 0.01 0.02 0.03 0.03 0.03 0.03 0.02 0.02 0.03 0.03 0.03 0.03 0.03 0.03 0.02 0.02 0.02 0.02 0.02 0.02 0.02 0.03 0.03 0.03 0.03 0.03 0.03 0.03 0.03 0.02 0.02
0.01 0.01 0.01 0.02 0.02 0.02 0.03 0.03 0.03 0.04 0.04 0.04 0.04 0.04 0.03 0.02 0.02 0.01 0.02 0.02 0.02 0.02 0.03 0.03 0.04 0.03 0.02 0.02 0.02 0.02 0.02 0.01 0.02 0.02 0.03 0.03 0.04 0.04 0.04 0.04 0.03 0.03 0.02
0.01 0.01 0.01 0.01 0.02 0.02 0.02 0.02 0.02 0.02 0.02 0.03 0.04 0.03 0.03 0.02 0.01 0.01 0.01 0.02 0.02 0.03 0.03 0.03 0.04 0.03 0.03 0.02 0.02 0.02 0.02 0.02 0.01 0.01 0.01 0.02 0.02 0.03 0.04 0.04 0.03 0.03 0.02
0.01 0.01 0.01 0.02 0.02 0.02 0.02 0.02 0.02 0.02 0.01 0.01 0.02 0.02 0.02 0.02 0.02 0.01 0.01 0.02 0.02 0.02 0.03 0.03 0.03 0.03 0.02 0.02 0.02 0.02 0.02 0.02 0.01 0.01 0.01 0.02 0.02 0.03 0.03 0.04 0.04 0.04 0.04
0.00 0.01 0.01 0.01 0.02 0.02 0.02 0.03 0.03 0.03 0.03 0.02 0.01 0.01 0.02 0.02 0.02 0.02 0.02 0.02 0.02 0.02 0.03 0.03 0.02 0.02 0.02 0.02 0.02 0.01 0.02 0.01 0.01 0.01 0.01 0.01 0.01 0.02 0.02 0.03 0.03 0.03 0.04
0.00 0.00 0.00 0.00 0.01 0.01 0.02 0.02 0.02 0.02 0.02 0.02 0.02 0.02 0.02 0.01 0.01 0.02 0.02 0.02 0.02 0.02 0.02 0.02 0.02 0.02 0.02 0.02 0.02 0.02 0.01 0.01 0.00 0.00 0.01 0.01 0.01 0.01 0.02 0.02 0.02 0.03 0.03
MSLP
1021.80 1022.05 1022.34 1022.64 1022.93 1023.17 1023.37 1023.52 1023.63 1023.72 1023.81 1023.91 1024.03 1024.17 1024.32 1024.46 1024.59 1024.69 1024.73 1024.73 1024.67 1024.56 1024.41 1024.25 1024.09 1023.96 1023.88 1023.86 1023.93 1024.06 1024.25 1024.47 1024.69 1024.87 1024.98 1024.98 1024.88 1024.66 1024.36 1024.00 1023.63 1023.27 1022.97
1022.33 1022.60 1022.91 1023.23 1023.53 1023.79 1024.01 1024.17 1024.30 1024.41 1024.51 1024.62 1024.75 1024.90 1025.06 1025.23 1025.38 1025.51 1025.59 1025.62 1025.58 1025.49 1025.36 1025.20 1025.04 1024.90 1024.81 1024.80 1024.87 1025.01 1025.22 1025.47 1025.72 1025.92 1026.05 1026.07 1025.96 1025.74 1025.42 1025.03 1024.62 1024.22 1023.87
1022.98 1023.29 1023.62 1023.96 1024.27 1024.54 1024.76 1024.94 1025.07 1025.18 1025.27 1025.38 1025.51 1025.66 1025.83 1026.01 1026.19 1026.34 1026.46 1026.53 1026.54 1026.50 1026.40 1026.27 1026.13 1026.00 1025.92 1025.91 1025.98 1026.13 1026.35 1026.60 1026.85 1027.06 1027.19 1027.21 1027.10 1026.87 1026.53 1026.12 1025.68 1025.25 1024.86
1023.68 1024.03 1024.40 1024.75 1025.08 1025.36 1025.58 1025.75 1025.89 1025.99 1026.09 1026.19 1026.31 1026.45 1026.62 1026.81 1027.00 1027.19 1027.34 1027.46 1027.52 1027.52 1027.48 1027.39 1027.29 1027.20 1027.14 1027.14 1027.21 1027.35 1027.55 1027.79 1028.03 1028.22 1028.34 1028.35 1028.23 1027.99 1027.65 1027.23 1026.77 1026.31 1025.88
1024.37 1024.76 1025.16 1025.54 1025.87 1026.16 1026.39 1026.57 1026.71 1026.82 1026.91 1027.01 1027.13 1027.27 1027.44 1027.63 1027.83 1028.03 1028.22 1028.37 1028.48 1028.54 1028.55 1028.52 1028.47 1028.41 1028.37 1028.38 1028.45 1028.58 1028.76 1028.97 1029.17 1029.34 1029.43 1029.42 1029.29 1029.05 1028.71 1028.29 1027.83 1027.36 1026.91
1024.96 1025.41 1025.84 1026.23 1026.59 1026.89 1027.13 1027.33 1027.49 1027.62 1027.73 1027.84 1027.97 1028.11 1028.28 1028.46 1028.67 1028.88 1029.08 1029.26 1029.41 1029.51 1029.58 1029.60 1029.59 1029.57 1029.56 1029.59 1029.65 1029.75 1029.90 1030.06 1030.22 1030.34 1030.40 1030.37 1030.23 1029.99 1029.65 1029.25 1028.80 1028.34 1027.89
1025.42 1025.91 1026.38 1026.80 1027.18 1027.51 1027.78 1028.01 1028.21 1028.38 1028.53 1028.67 1028.82 1028.97 1029.14 1029.32 1029.52 1029.72 1029.92 1030.11 1030.28 1030.42 1030.52 1030.59 1030.63 1030.65 1030.66 1030.69 1030.74 1030.83 1030.93 1031.05 1031.15 1031.22 1031.24 1031.18 1031.02 1030.78 1030.46 1030.08 1029.66 1029.22 1028.78
1025.73 1026.27 1026.77 1027.23 1027.65 1028.01 1028.33 1028.62 1028.87 1029.10 1029.31 1029.50 1029.67 1029.85 1030.02 1030.19 1030.38 1030.56 1030.75 1030.94 1031.11 1031.27 1031.39 1031.49 1031.57 1031.62 1031.66 1031.69 1031.74 1031.79 1031.86 1031.92 1031.97 1031.98 1031.95 1031.85 1031.68 1031.44 1031.13 1030.78 1030.38 1029.97 1029.55
1025.92 1026.51 1027.05 1027.55 1028.01 1028.43 1028.81 1029.17 1029.49 1029.79 1030.06 1030.31 1030.53 1030.72 1030.90 1031.07 1031.23 1031.40 1031.57 1031.74 1031.91 1032.07 1032.21 1032.34 1032.44 1032.52 1032.58 1032.62 1032.65 1032.68 1032.70 1032.71 1032.70 1032.66 1032.58 1032.44 1032.24 1031.99 1031.68 1031.34 1030.97 1030.58 1030.17
1026.03 1026.67 1027.26 1027.80 1028.31 1028.79 1029.24 1029.67 1030.07 1030.45 1030.78 1031.09 1031.35 1031.57 1031.76 1031.92 1032.07 1032.22 1032.37 1032.52 1032.69 1032.85 1033.01 1033.16 1033.28 1033.38 1033.46 1033.51 1033.53 1033.53 1033.52 1033.47 1033.40 1033.30 1033.16 1032.97 1032.74 1032.46 1032.14 1031.79 1031.42 1031.04 1030.64
1026.11 1026.79 1027.42 1028.02 1028.58 1029.12 1029.64 1030.14 1030.61 1031.06 1031.46 1031.81 1032.11 1032.35 1032.55 1032.72 1032.86 1033.00 1033.14 1033.29 1033.45 1033.63 1033.81 1033.97 1034.12 1034.25 1034.34 1034.39 1034.40 1034.38 1034.32 1034.23 1034.10 1033.93 1033.73 1033.48 1033.20 1032.88 1032.53 1032.16 1031.77 1031.37 1030.96
1026.19 1026.90 1027.58 1028.22 1028.83 1029.43 1030.01 1030.56 1031.10 1031.59 1032.04 1032.44 1032.76 1033.03 1033.25 1033.42 1033.57 1033.71 1033.86 1034.02 1034.20 1034.40 1034.60 1034.80 1034.98 1035.12 1035.22 1035.27 1035.27 1035.22 1035.12 1034.98 1034.79 1034.56 1034.29 1033.98 1033.63 1033.26 1032.86 1032.45 1032.02 1031.59 1031.16
1026.26 1027.00 1027.71 1028.39 1029.05 1029.69 1030.32 1030.92 1031.50 1032.03 1032.51 1032.93 1033.28 1033.57 1033.80 1034.00 1034.17 1034.33 1034.51 1034.70 1034.92 1035.15 1035.39 1035.62 1035.82 1035.98 1036.09 1036.14 1036.12 1036.04 1035.90 1035.70 1035.45 1035.16 1034.82 1034.45 1034.04 1033.61 1033.16 1032.69 1032.21 1031.73 1031.26
1026.32 1027.08 1027.81 1028.53 1029.22 1029.90 1030.56 1031.19 1031.79 1032.35 1032.84 1033.28 1033.64 1033.95 1034.20 1034.42 1034.63 1034.84 1035.07 1035.31 1035.58 1035.86 1036.14 1036.40 1036.63 1036.80 1036.91 1036.95 1036.90 1036.79 1036.60 1036.36 1036.05 1035.70 1035.31 1034.88 1034.41 1033.92 1033.41 1032.89 1032.36 1031.83 1031.30
1026.35 1027.11 1027.86 1028.60 1029.32 1030.02 1030.71 1031.36 1031.97 1032.53 1033.03 1033.47 1033.85 1034.17 1034.46 1034.72 1034.98 1035.24 1035.53 1035.84 1036.17 1036.50 1036.82 1037.12 1037.36 1037.54 1037.64 1037.65 1037.58 1037.43 1037.20 1036.91 1036.56 1036.16 1035.72 1035.24 1034.73 1034.20 1033.64 1033.07 1032.49 1031.91 1031.34
1026.33 1027.09 1027.85 1028.60 1029.34 1030.07 1030.77 1031.43 1032.05 1032.61 1033.11 1033.56 1033.95 1034.29 1034.61 1034.92 1035.23 1035.56 1035.91 1036.28 1036.67 1037.05 1037.41 1037.73 1037.98 1038.15 1038.23 1038.21 1038.11 1037.92 1037.65 1037.33 1036.94 1036.51 1036.05 1035.54 1035.00 1034.44 1033.85 1033.24 1032.62 1032.00 1031.39
1026.25 1027.01 1027.77 1028.54 1029.30 1030.05 1030.76 1031.43 1032.06 1032.62 1033.13 1033.58 1033.98 1034.35 1034.71 1035.06 1035.43 1035.82 1036.24 1036.67 1037.10 1037.52 1037.90 1038.23 1038.47 1038.62 1038.68 1038.63 1038.49 1038.26 1037.97 1037.62 1037.21 1036.77 1036.29 1035.78 1035.23 1034.65 1034.05 1033.42 1032.79 1032.14 1031.50
1026.13 1026.89 1027.66 1028.45 1029.23 1029.99 1030.72 1031.40 1032.03 1032.61 1033.12 1033.59 1034.01 1034.41 1034.80 1035.20 1035.62 1036.07 1036.53 1037.01 1037.47 1037.91 1038.30 1038.61 1038.83 1038.96 1038.98 1038.90 1038.73 1038.48 1038.16 1037.80 1037.39 1036.95 1036.48 1035.97 1035.44 1034.87 1034.26 1033.64 1032.99 1032.33 1031.66
1025.99 1026.75 1027.53 1028.33 1029.13 1029.91 1030.66 1031.36 1032.00 1032.59 1033.12 1033.60 1034.05 1034.49 1034.92 1035.36 1035.82 1036.30 1036.80 1037.30 1037.78 1038.21 1038.59 1038.88 1039.08 1039.17 1039.16 1039.05 1038.85 1038.59 1038.27 1037.91 1037.51 1037.09 1036.63 1036.15 1035.63 1035.08 1034.50 1033.87 1033.23 1032.56 1031.88
1025.83 1026.59 1027.39 1028.20 1029.02 1029.82 1030.58 1031.30 1031.96 1032.57 1033.12 1033.63 1034.11 1034.57 1035.04 1035.52 1036.01 1036.52 1037.03 1037.53 1038.00 1038.43 1038.78 1039.04 1039.20 1039.26 1039.22 1039.09 1038.89 1038.62 1038.31 1037.96 1037.59 1037.19 1036.77 1036.32 1035.83 1035.31 1034.74 1034.13 1033.49 1032.82 1032.14
1025.65 1026.41 1027.22 1028.05 1028.88 1029.69 1030.46 1031.20 1031.88 1032.50 1033.08 1033.62 1034.13 1034.63 1035.13 1035.63 1036.15 1036.67 1037.18 1037.68 1038.13 1038.53 1038.84 1039.07 1039.20 1039.24 1039.18 1039.04 1038.84 1038.59 1038.30 1037.98 1037.64 1037.28 1036.90 1036.48 1036.02 1035.52 1034.98 1034.39 1033.76 1033.10 1032.42
1025.42 1026.19 1027.00 1027.83 1028.66 1029.47 1030.26 1031.00 1031.69 1032.34 1032.94 1033.51 1034.06 1034.59 1035.12 1035.65 1036.18 1036.71 1037.22 1037.70 1038.13 1038.49 1038.78 1038.98 1039.09 1039.10 1039.04 1038.91 1038.72 1038.50 1038.24 1037.96 1037.66 1037.34 1037.00 1036.61 1036.19 1035.72 1035.20 1034.63 1034.02 1033.37 1032.71
1025.11 1025.88 1026.68 1027.50 1028.32 1029.12 1029.90 1030.65 1031.35 1032.02 1032.65 1033.25 1033.83 1034.40 1034.96 1035.51 1036.06 1036.59 1037.10 1037.56 1037.97 1038.31 1038.57 1038.75 1038.84 1038.86 1038.80 1038.69 1038.53 1038.34 1038.13 1037.89 1037.64 1037.36 1037.05 1036.70 1036.31 1035.87 1035.38 1034.83 1034.25 1033.63 1032.99
1024.70 1025.45 1026.23 1027.03 1027.82 1028.61 1029.38 1030.11 1030.82 1031.50 1032.16 1032.79 1033.41 1034.01 1034.61 1035.19 1035.76 1036.30 1036.81 1037.26 1037.66 1037.98 1038.23 1038.40 1038.49 1038.52 1038.48 1038.40 1038.28 1038.13 1037.96 1037.77 1037.56 1037.32 1037.05 1036.73 1036.37 1035.96 1035.50 1034.99 1034.45 1033.87 1033.27
1024.15 1024.89 1025.64 1026.40 1027.17 1027.93 1028.67 1029.40 1030.11 1030.80 1031.48 1032.15 1032.80 1033.44 1034.08 1034.70 1035.29 1035.85 1036.36 1036.82 1037.22 1037.54 1037.78 1037.96 1038.06 1038.11 1038.10 1038.05 1037.97 1037.87 1037.74 1037.59 1037.42 1037.22 1036.98 1036.70 1036.38 1036.00 1035.58 1035.11 1034.61 1034.09 1033.55
1023.49 1024.20 1024.92 1025.65 1026.38 1027.11 1027.83 1028.54 1029.25 1029.96 1030.66 1031.35 1032.05 1032.73 1033.41 1034.06 1034.69 1035.28 1035.81 1036.29 1036.69 1037.02 1037.28 1037.47 1037.60 1037.67 1037.69 1037.68 1037.64 1037.58 1037.49 1037.39 1037.25 1037.08 1036.88 1036.63 1036.33 1035.99 1035.62 1035.20 1034.76 1034.30 1033.83
Thickness
5694 5693 5691 5690 5688 5687 5685 5685 5684 5682 5681 5680 5679 5677 5675 5673 5673 5671 5669 5667 5665 5664 5662 5661 5659 5658 5657 5656 5654 5653 5650 5648 5642 5637 5636 5636 5636 5636 5636 5636 5635 5635 5634
5692 5690 5688 5687 5685 5683 5682 5681 5680 5679 5677 5676 5675 5673 5671 5670 5669 5667 5665 5663 5661 5659 5658 5657 5655 5655 5653 5652 5650 5648 5647 5645 5641 5635 5633 5632 5631 5631 5631 5631 5630 5629 5628
5689 5687 5684 5683 5681 5680 5679 5678 5676 5675 5673 5672 5671 5669 5668 5666 5665 5663 5661 5659 5657 5656 5654 5653 5651 5651 5649 5647 5645 5644 5642 5641 5638 5634 5630 5628 5627 5626 5626 5625 5624 5623 5623
5686 5683 5681 5680 5679 5677 5676 5674 5673 5672 5670 5668 5667 5666 5664 5663 5661 5659 5657 5655 5653 5652 5651 5649 5648 5647 5645 5643 5642 5639 5638 5635 5632 5629 5626 5623 5621 5620 5619 5618 5617 5616 5615
5683 5680 5679 5677 5676 5674 5672 5670 5669 5668 5667 5665 5663 5661 5660 5659 5657 5655 5653 5651 5649 5648 5647 5646 5645 5644 5643 5641 5639 5636 5634 5630 5627 5624 5621 5618 5616 5614 5613 5611 5610 5609 5608
5680 5678 5676 5674 5672 5670 5668 5666 5665 5663 5661 5659 5658 5657 5656 5656 5655 5653 5651 5648 5645 5644 5642 5641 5641 5640 5639 5637 5635 5633 5631 5627 5623 5620 5616 5614 5611 5610 5608 5607 5604 5602 5601
5677 5675 5673 5671 5668 5666 5665 5662 5660 5658 5656 5654 5653 5652 5651 5651 5650 5649 5647 5644 5642 5640 5639 5637 5637 5635 5633 5631 5630 5628 5626 5625 5623 5619 5614 5611 5609 5607 5604 5601 5598 5596 5594
5674 5672 5670 5668 5665 5663 5660 5658 5656 5654 5652 5650 5649 5648 5647 5647 5646 5645 5642 5640 5637 5636 5634 5633 5631 5629 5628 5626 5624 5621 5619 5618 5617 5615 5612 5609 5607 5604 5601 5598 5595 5591 5589
5671 5669 5667 5665 5662 5659 5656 5654 5652 5650 5648 5646 5645 5644 5643 5642 5641 5640 5638 5634 5632 5630 5629 5628 5626 5624 5623 5621 5619 5615 5613 5611 5610 5609 5606 5604 5602 5599 5596 5592 5588 5586 5583
5669 5668 5666 5663 5660 5657 5654 5651 5649 5646 5644 5642 5640 5639 5638 5637 5636 5635 5633 5630 5626 5624 5623 5622 5621 5620 5619 5616 5613 5610 5607 5604 5603 5602 5599 5597 5595 5592 5590 5587 5584 5580 5576
5667 5665 5663 5660 5658 5655 5651 5648 5645 5642 5639 5637 5635 5634 5633 5633 5632 5631 5628 5625 5623 5620 5618 5616 5616 5615 5613 5611 5609 5606 5604 5600 5597 5595 5591 5589 5587 5585 5582 5580 5577 5574 5570
5663 5660 5658 5656 5654 5651 5647 5644 5641 5638 5634 5632 5630 5628 5627 5627 5627 5625 5623 5621 5619 5616 5614 5613 5611 5610 5608 5606 5604 5601 5598 5595 5591 5587 5584 5580 5578 5576 5574 5572 5570 5567 5564
5660 5657 5654 5652 5650 5647 5644 5640 5637 5634 5631 5628 5626 5624 5622 5621 5621 5620 5618 5617 5615 5612 5610 5609 5607 5605 5603 5600 5598 5595 5592 5587 5584 5580 5576 5573 5571 5569 5567 5564 5561 5558 5555
5656 5653 5650 5647 5645 5643 5640 5638 5634 5631 5628 5625 5623 5620 5618 5616 5615 5614 5612 5610 5609 5606 5604 5603 5601 5599 5596 5594 5591 5588 5584 5581 5578 5574 5570 5567 5564 5562 5559 5556 5553 5550 5546
5652 5650 5647 5644 5642 5639 5637 5635 5633 5632 5630 5626 5623 5620 5616 5613 5613 5612 5609 5607 5604 5602 5599 5595 5592 5590 5588 5586 5583 5580 5577 5574 5571 5567 5564 5561 5557 5555 5552 5549 5545 5541 5537
5648 5646 5644 5640 5637 5635 5631 5628 5628 5627 5625 5624 5622 5619 5617 5615 5612 5609 5607 5604 5601 5599 5594 5590 5587 5585 5583 5580 5577 5574 5571 5568 5565 5562 5558 5554 5551 5548 5545 5541 5537 5533 5529
5645 5643 5640 5637 5633 5630 5628 5625 5622 5619 5619 5617 5616 5614 5613 5610 5608 5605 5602 5599 5596 5594 5590 5587 5584 5581 5579 5576 5573 5570 5566 5563 5560 5556 5552 5549 5545 5541 5537 5533 5529 5525 5521
5642 5640 5637 5634 5630 5627 5624 5622 5619 5616 5613 5610 5610 5609 5608 5605 5603 5600 5597 5593 5589 5587 5586 5583 5580 5577 5574 5571 5568 5565 5561 5557 5553 5550 5547 5543 5539 5534 5530 5526 5522 5518 5514
5637 5635 5632 5629 5626 5623 5620 5617 5614 5612 5609 5606 5603 5602 5601 5599 5596 5594 5591 5589 5586 5583 5580 5578 5576 5573 5570 5567 5564 5560 5556 5552 5548 5545 5541 5537 5533 5528 5524 5519 5515 5511 5506
5632 5632 5629 5625 5622 5618 5615 5612 5609 5607 5604 5602 5599 5597 5595 5591 5588 5587 5585 5583 5581 5579 5576 5574 5571 5568 5565 5562 5558 5554 5550 5547 5543 5539 5535 5531 5526 5522 5517 5513 5507 5502 5498
5628 5626 5624 5620 5617 5614 5611 5608 5606 5603 5601 5598 5596 5594 5591 5588 5586 5583 5581 5578 5577 5575 5572 5569 5566 5563 5560 5556 5553 5549 5545 5542 5538 5533 5529 5525 5520 5515 5511 5506 5501 5496 5491
5622 5620 5617 5615 5612 5609 5607 5604 5601 5599 5596 5594 5590 5587 5585 5583 5581 5578 5576 5574 5572 5570 5568 5565 5561 5558 5555 5551 5548 5544 5540 5536 5532 5528 5523 5519 5514 5509 5504 5499 5495 5490 5484
5616 5614 5611 5609 5606 5604 5601 5598 5596 5594 5591 5589 5586 5583 5580 5577 5576 5573 5571 5569 5567 5564 5561 5559 5556 5553 5549 5546 5543 5540 5536 5532 5528 5524 5519 5514 5508 5504 5499 5494 5489 5483 5478
5610 5607 5605 5602 5600 5597 5595 5593 5591 5589 5587 5584 5581 5578 5576 5573 5571 5569 5566 5563 5561 5558 5555 5553 5550 5548 5545 5541 5538 5535 5532 5528 5524 5519 5515 5509 5504 5499 5493 5488 5483 5478 5472
5604 5602 5599 5597 5594 5592 5590 5588 5586 5584 5582 5579 5577 5574 5571 5568 5566 5564 5561 5558 5555 5552 5550 5547 5544 5542 5539 5537 5534 5531 5527 5523 5519 5514 5509 5504 5499 5493 5488 5482 5477 5471 5466
5598 5596 5593 5591 5589 5587 5585 5583 5581 5579 5577 5575 5573 5570 5567 5564 5561 5558 5555 5552 5549 5546 5543 5541 5538 5536 5534 5531 5528 5525 5522 5518 5513 5509 5504 5499 5493 5487 5482 5476 5471 5465 5459